KA5FVT Weather Reports


time (UTC)temp
F
wind
direction
speed
knots
gust
knots
rain 1hr
in
rain 24hr
in
rain mn
in
humidity
%
barometer
mb
20260507003930 78 340 0.9 1.7 0.00 0.00 0.00 78 1008.9
20260507003427 79 340 0.0 1.7 0.00 0.00 0.00 77 1008.7
20260507002929 79 339 0.9 1.7 0.00 0.00 0.00 76 1008.8
20260507002427 80 339 0.9 4.3 0.00 0.00 0.00 75 1008.6
20260507001930 82 328 0.9 2.6 0.00 0.00 0.00 75 1008.5
20260507001426 83 329 0.9 2.6 0.00 0.00 0.00 74 1008.4
20260507000927 84 325 0.9 1.7 0.00 0.00 0.00 81 1008.0
20260507000428 84 325 0.0 0.0 0.00 0.00 0.00 81 1008.0
20260506235926 84 325 0.0 0.0 0.00 0.00 0.00 81 1007.9
20260506235426 84 325 0.0 0.0 0.00 0.00 0.00 80 1008.0
20260506234926 84 325 0.0 0.0 0.00 0.00 0.00 80 1008.1
20260506234427 84 325 0.0 0.0 0.00 0.00 0.00 80 1008.1
20260506233926 84 325 0.0 0.0 0.00 0.00 0.00 80 1007.9
20260506233427 84 325 0.0 0.0 0.00 0.00 0.00 81 1007.9
20260506232927 84 325 0.0 0.0 0.00 0.00 0.00 80 1007.9
20260506232427 84 325 0.0 1.7 0.00 0.00 0.00 80 1007.8
20260506231927 84 325 0.0 0.0 0.00 0.00 0.00 80 1007.8
20260506231426 84 325 0.0 0.0 0.00 0.00 0.00 81 1007.8
20260506230927 84 325 0.0 0.0 0.00 0.00 0.00 81 1007.9
20260506230430 84 325 0.0 0.0 0.00 0.00 0.00 81 1007.9
20260506225927 84 325 0.0 0.0 0.00 0.00 0.00 81 1007.9
20260506225427 84 325 0.0 0.0 0.00 0.00 0.00 80 1008.0
20260506224926 85 325 0.0 0.0 0.00 0.00 0.00 80 1007.9
20260506224427 85 325 0.0 0.0 0.00 0.00 0.00 80 1007.9
20260506223927 85 325 0.0 0.0 0.00 0.00 0.00 79 1007.8
20260506223427 85 325 0.0 0.0 0.00 0.00 0.00 79 1007.8
20260506222926 85 325 0.0 0.9 0.00 0.00 0.00 78 1007.8
20260506222427 85 325 0.0 0.0 0.00 0.00 0.00 79 1007.7
20260506221927 85 325 0.0 0.0 0.00 0.00 0.00 79 1007.7
20260506221427 85 325 0.0 0.0 0.00 0.00 0.00 78 1007.6
20260506220926 85 325 0.0 0.0 0.00 0.00 0.00 78 1007.6
20260506220427 85 325 0.0 0.9 0.00 0.00 0.00 78 1007.5
20260506215927 85 325 0.0 1.7 0.00 0.00 0.00 78 1007.6
20260506215427 85 325 0.9 1.7 0.00 0.00 0.00 78 1007.6
20260506214927 85 325 0.0 0.9 0.00 0.00 0.00 81 1007.5
20260506214429 84 325 0.0 0.0 0.00 0.00 0.00 81 1007.6
20260506213930 84 325 0.0 0.9 0.00 0.00 0.00 80 1007.8
20260506213429 84 325 0.0 1.7 0.00 0.00 0.00 79 1007.8
20260506212926 85 325 0.0 0.9 0.00 0.00 0.00 79 1007.8
20260506212427 85 325 0.0 0.9 0.00 0.00 0.00 79 1007.6
20260506211927 85 325 0.0 1.7 0.00 0.00 0.00 78 1007.6
20260506211431 85 325 0.9 1.7 0.00 0.00 0.00 78 1007.6
20260506210927 85 325 0.0 0.0 0.00 0.00 0.00 78 1007.5
20260506210426 85 325 0.0 0.0 0.00 0.00 0.00 77 1007.7
20260506205927 85 325 0.0 0.0 0.00 0.00 0.00 77 1007.7
20260506205426 86 325 0.0 0.9 0.00 0.00 0.00 77 1007.8
20260506204927 86 325 0.9 0.9 0.00 0.00 0.00 76 1007.9
20260506204426 86 325 0.0 0.0 0.00 0.00 0.00 78 1008.0
20260506203927 86 325 0.0 0.0 0.00 0.00 0.00 77 1008.1
20260506203430 86 325 0.0 0.0 0.00 0.00 0.00 76 1008.1
20260506202927 86 325 0.0 0.0 0.00 0.00 0.00 76 1008.0
20260506202427 86 325 0.0 0.9 0.00 0.00 0.00 75 1008.1
20260506201930 86 325 0.0 0.9 0.00 0.00 0.00 76 1008.1
20260506201426 86 325 0.0 2.6 0.00 0.00 0.00 75 1008.1
20260506200927 86 36 0.0 0.9 0.00 0.00 0.00 75 1008.3
20260506200427 86 36 0.0 0.9 0.00 0.00 0.00 76 1008.4
20260506195927 86 36 0.0 0.9 0.00 0.00 0.00 76 1008.4
20260506195426 86 25 0.0 0.0 0.00 0.00 0.00 75 1008.5
20260506194930 86 25 0.0 0.9 0.00 0.00 0.00 75 1008.5
20260506194426 86 25 0.0 0.9 0.00 0.00 0.00 75 1008.5
20260506193927 86 25 0.0 2.6 0.00 0.00 0.00 74 1008.5
20260506193427 86 243 0.0 1.7 0.00 0.00 0.00 76 1008.5
20260506192927 86 244 0.9 1.7 0.00 0.00 0.00 77 1008.5
20260506192427 85 248 0.0 0.9 0.00 0.00 0.00 77 1008.5
20260506191927 85 248 0.0 0.9 0.00 0.00 0.00 78 1008.7
20260506191430 84 271 0.9 0.9 0.00 0.00 0.00 79 1008.9
20260506190930 84 274 0.0 0.9 0.00 0.00 0.00 79 1009.0
20260506190427 84 274 0.0 0.9 0.00 0.00 0.00 79 1009.0
20260506185930 84 274 0.9 0.9 0.00 0.00 0.00 78 1009.1
20260506185427 85 274 0.0 0.9 0.00 0.00 0.00 78 1009.0
20260506184927 85 274 0.0 0.9 0.00 0.00 0.00 78 1009.1
20260506184426 85 274 0.0 0.9 0.00 0.00 0.00 77 1008.9
20260506183926 85 274 0.0 0.9 0.00 0.00 0.00 77 1009.1
20260506183427 85 274 0.9 0.9 0.00 0.00 0.00 77 1009.2
20260506182927 84 269 0.9 0.9 0.00 0.00 0.00 78 1009.4
20260506182427 84 269 0.0 0.9 0.00 0.00 0.00 79 1009.3
20260506181926 84 269 0.0 2.6 0.00 0.00 0.00 79 1009.4
20260506181427 83 279 0.0 2.6 0.00 0.00 0.00 79 1009.6
20260506180929 83 205 0.9 0.9 0.00 0.00 0.00 81 1009.8
20260506180427 83 205 0.0 0.0 0.00 0.00 0.00 82 1009.8
20260506175927 82 205 0.0 0.0 0.00 0.00 0.00 81 1009.8
20260506175426 82 205 0.0 0.0 0.00 0.00 0.00 82 1010.0
20260506174926 82 205 0.0 0.0 0.00 0.00 0.00 82 1010.1
20260506174430 82 205 0.0 0.9 0.00 0.00 0.00 83 1010.2
20260506173927 82 205 0.0 0.0 0.00 0.00 0.00 83 1010.2
20260506173426 82 205 0.0 0.0 0.00 0.00 0.00 83 1010.4
20260506172927 82 205 0.0 0.0 0.00 0.00 0.00 83 1010.5
20260506172427 81 205 0.0 0.0 0.00 0.00 0.00 82 1010.5
20260506171927 81 205 0.0 0.9 0.00 0.00 0.00 82 1010.6
20260506171427 81 205 0.0 0.0 0.00 0.00 0.00 82 1010.5
20260506170926 81 205 0.0 0.0 0.00 0.00 0.00 83 1010.6
20260506170427 81 205 0.0 0.9 0.00 0.00 0.00 82 1010.6
20260506165926 81 205 0.0 0.9 0.00 0.00 0.00 84 1010.6
20260506165427 81 205 0.9 0.9 0.00 0.00 0.00 84 1010.5
20260506164927 81 205 0.0 0.0 0.00 0.00 0.00 84 1010.3
20260506164426 81 205 0.0 0.9 0.00 0.00 0.00 84 1010.3
20260506163927 81 205 0.0 0.9 0.00 0.00 0.00 83 1010.3
20260506163429 81 205 0.0 0.9 0.00 0.00 0.00 84 1010.3
20260506162927 81 205 0.9 0.9 0.00 0.00 0.00 83 1010.2
20260506162426 81 205 0.0 0.0 0.00 0.00 0.00 85 1010.2
20260506161927 81 205 0.0 0.0 0.00 0.00 0.00 85 1010.1
20260506161426 81 205 0.0 0.0 0.00 0.00 0.00 85 1010.0
20260506160926 81 205 0.0 0.0 0.00 0.00 0.00 85 1010.0
20260506160426 81 205 0.0 0.0 0.00 0.00 0.00 84 1009.9
20260506155926 81 205 0.0 0.0 0.00 0.00 0.00 84 1010.0
20260506155427 81 205 0.0 0.0 0.00 0.00 0.00 84 1010.0
20260506154927 81 205 0.0 0.0 0.00 0.00 0.00 84 1010.0
20260506154427 81 205 0.0 0.0 0.00 0.00 0.00 84 1009.9
20260506153927 81 205 0.0 0.0 0.00 0.00 0.00 84 1009.9
20260506153426 81 205 0.0 0.0 0.00 0.00 0.00 83 1010.0
20260506152927 81 205 0.0 0.9 0.00 0.00 0.00 84 1009.9
20260506152427 81 205 0.0 0.0 0.00 0.00 0.00 85 1009.8
20260506151926 80 205 0.0 0.0 0.00 0.00 0.00 85 1009.7
20260506151430 80 205 0.0 0.9 0.00 0.00 0.00 85 1009.7
20260506150927 80 205 0.0 0.0 0.00 0.00 0.00 87 1009.6
20260506150427 80 205 0.0 0.0 0.00 0.00 0.00 87 1009.5
20260506145926 79 205 0.0 0.9 0.00 0.00 0.00 87 1009.5
20260506145427 79 205 0.0 0.9 0.00 0.00 0.00 87 1009.4
20260506144927 79 205 0.9 0.9 0.00 0.00 0.00 88 1009.4
20260506144427 79 205 0.0 0.0 0.00 0.00 0.00 88 1009.3
20260506143927 79 205 0.0 0.0 0.00 0.00 0.00 89 1009.2
20260506143426 79 205 0.0 0.0 0.00 0.00 0.00 89 1009.2
20260506142927 78 205 0.0 0.0 0.00 0.00 0.00 90 1009.1
20260506142430 78 205 0.0 0.9 0.00 0.00 0.00 90 1009.2
20260506141929 78 205 0.0 0.9 0.00 0.00 0.00 90 1009.2
20260506141429 78 205 0.0 0.0 0.00 0.00 0.00 90 1009.1
20260506140926 78 205 0.0 0.0 0.00 0.00 0.00 91 1009.2
20260506140427 78 205 0.0 0.0 0.00 0.00 0.00 91 1009.2
20260506135926 77 205 0.0 0.0 0.00 0.00 0.00 91 1009.3
20260506135427 77 205 0.0 0.0 0.00 0.00 0.00 91 1009.1
20260506134926 77 205 0.0 0.0 0.00 0.00 0.00 91 1009.3
20260506134427 77 205 0.0 0.0 0.00 0.00 0.00 91 1009.4
20260506133927 77 205 0.0 0.0 0.00 0.00 0.00 92 1009.4
20260506133426 77 205 0.0 0.0 0.00 0.00 0.00 92 1009.3
20260506132926 77 205 0.0 0.0 0.00 0.00 0.00 92 1009.5
20260506132430 77 205 0.0 0.0 0.00 0.00 0.00 92 1009.6
20260506131927 77 205 0.0 0.0 0.00 0.00 0.00 92 1009.6
20260506131426 77 205 0.0 0.0 0.00 0.00 0.00 92 1009.5
20260506130927 76 205 0.0 0.0 0.00 0.00 0.00 93 1009.4
20260506130427 76 205 0.0 0.0 0.00 0.00 0.00 93 1009.4
20260506125926 76 205 0.0 0.0 0.00 0.00 0.00 93 1009.4
20260506125427 76 205 0.0 0.0 0.00 0.00 0.00 93 1009.4
20260506124929 76 205 0.0 0.0 0.00 0.00 0.00 93 1009.3
20260506124426 76 205 0.0 0.0 0.00 0.00 0.00 93 1009.2
20260506123927 76 205 0.0 0.0 0.00 0.00 0.00 93 1009.4
20260506123430 76 205 0.0 0.0 0.00 0.00 0.00 93 1009.2
20260506122926 76 205 0.0 0.0 0.00 0.00 0.00 93 1009.3
20260506122426 75 205 0.0 0.0 0.00 0.00 0.00 93 1009.2
20260506121926 75 205 0.0 0.0 0.00 0.00 0.00 93 1009.1
20260506121430 75 205 0.0 0.0 0.00 0.00 0.00 93 1009.2
20260506120926 75 205 0.0 0.0 0.00 0.00 0.00 93 1009.2
20260506120427 75 205 0.0 0.0 0.00 0.00 0.00 93 1009.1
20260506115927 75 205 0.0 0.0 0.00 0.00 0.00 92 1009.1
20260506115427 75 205 0.0 0.0 0.00 0.00 0.00 92 1009.0
20260506114927 75 205 0.0 0.0 0.00 0.00 0.00 92 1009.0
20260506114426 75 205 0.0 0.0 0.00 0.00 0.00 92 1009.0
20260506113929 75 205 0.0 0.0 0.00 0.00 0.00 92 1008.8
20260506113426 75 205 0.0 0.0 0.00 0.00 0.00 92 1008.7
20260506112927 75 205 0.0 0.0 0.00 0.00 0.00 92 1008.7
20260506112426 75 205 0.0 0.0 0.00 0.00 0.00 92 1008.6
20260506111927 75 205 0.0 0.0 0.00 0.00 0.00 92 1008.5
20260506111426 75 205 0.0 0.0 0.00 0.00 0.00 92 1008.4
20260506110927 76 205 0.0 0.0 0.00 0.00 0.00 92 1008.3
20260506110426 76 205 0.0 0.0 0.00 0.00 0.00 92 1008.2
20260506105926 76 205 0.0 0.0 0.00 0.00 0.00 91 1008.1
20260506105427 76 205 0.0 0.0 0.00 0.00 0.00 91 1008.0
20260506104927 76 205 0.0 0.0 0.00 0.00 0.00 91 1007.9
20260506104427 76 205 0.0 0.0 0.00 0.00 0.00 91 1008.0
20260506103927 76 205 0.0 0.0 0.00 0.00 0.00 91 1008.0
20260506103429 76 205 0.0 0.0 0.00 0.00 0.00 90 1008.0
20260506102926 76 205 0.0 0.0 0.00 0.00 0.00 90 1008.0
20260506102426 76 205 0.0 0.0 0.00 0.00 0.00 90 1007.9
20260506101927 76 205 0.0 0.0 0.00 0.00 0.00 90 1008.0
20260506101427 76 205 0.0 0.9 0.00 0.00 0.00 90 1008.0
20260506100927 76 205 0.0 0.0 0.00 0.00 0.00 90 1008.0
20260506100426 76 205 0.0 0.0 0.00 0.00 0.00 90 1007.9
20260506095926 76 205 0.0 0.0 0.00 0.00 0.00 90 1007.9
20260506095426 76 205 0.0 0.0 0.00 0.00 0.00 90 1007.9
20260506094929 76 205 0.0 0.0 0.00 0.00 0.00 89 1007.8
20260506094429 76 205 0.0 0.0 0.00 0.00 0.00 89 1007.6
20260506093927 76 205 0.0 0.0 0.00 0.00 0.00 89 1007.5
20260506093427 77 205 0.0 0.9 0.00 0.00 0.00 89 1007.5
20260506092929 77 205 0.0 0.0 0.00 0.00 0.00 89 1007.4
20260506092427 77 205 0.0 0.9 0.00 0.00 0.00 89 1007.6
20260506091926 77 205 0.0 0.9 0.00 0.00 0.00 89 1007.6
20260506091427 77 205 0.0 0.9 0.00 0.00 0.00 89 1007.5
20260506090926 77 205 0.9 1.7 0.00 0.00 0.00 89 1007.7
20260506090429 77 206 0.0 0.9 0.00 0.00 0.00 89 1007.8
20260506085927 77 206 0.0 1.7 0.00 0.00 0.00 89 1007.7
20260506085430 77 206 0.0 0.0 0.00 0.00 0.00 89 1007.8
20260506084927 77 206 0.0 0.9 0.00 0.00 0.00 89 1007.9
20260506084426 77 206 0.0 0.9 0.00 0.00 0.00 89 1007.6
20260506083927 77 206 0.0 0.9 0.00 0.00 0.00 88 1007.8
20260506083427 77 206 0.0 1.7 0.00 0.00 0.00 88 1007.8
20260506082927 77 206 0.0 0.9 0.00 0.00 0.00 88 1007.9
20260506082427 77 206 0.0 1.7 0.00 0.00 0.00 88 1007.9
20260506081927 77 206 0.0 0.0 0.00 0.00 0.00 88 1008.0
20260506081430 77 206 0.0 0.9 0.00 0.00 0.00 88 1008.1
20260506080926 77 206 0.0 0.9 0.00 0.00 0.00 88 1008.1
20260506080427 77 206 0.0 0.0 0.00 0.00 0.00 88 1008.1
20260506073426 77 206 0.0 0.9 0.00 0.00 0.00 88 1008.6
20260506072926 77 206 0.0 0.9 0.00 0.00 0.00 88 1008.7
20260506072429 77 206 0.0 0.0 0.00 0.00 0.00 88 1008.7
20260506071927 77 206 0.0 0.9 0.00 0.00 0.00 88 1008.7
20260506071427 77 206 0.0 1.7 0.00 0.00 0.00 88 1008.8
20260506070926 77 206 0.0 0.9 0.00 0.00 0.00 88 1008.8
20260506070426 77 206 0.0 1.7 0.00 0.00 0.00 88 1008.8
20260506062427 77 206 0.0 0.9 0.00 0.00 0.00 88 1008.8
20260506061926 77 206 0.0 0.9 0.00 0.00 0.00 88 1008.9
20260506061426 77 206 0.0 0.0 0.00 0.00 0.00 88 1008.9
20260506060926 77 206 0.0 0.0 0.00 0.00 0.00 88 1008.9
20260506060427 77 206 0.0 0.0 0.00 0.00 0.00 87 1008.9
20260506050930 78 206 0.0 0.9 0.00 0.00 0.00 87 1009.1
20260506050427 78 207 0.0 0.9 0.00 0.00 0.00 86 1009.0
20260506044926 78 163 0.9 1.7 0.00 0.00 0.00 85 1008.7
20260506044426 78 165 0.9 1.7 0.00 0.00 0.00 85 1008.9
20260506043927 78 165 0.9 1.7 0.00 0.00 0.00 85 1009.0
20260506043427 78 164 0.0 0.9 0.00 0.00 0.00 85 1009.1
20260506042926 78 164 0.0 0.9 0.00 0.00 0.00 85 1009.1
20260506042427 79 164 0.0 0.9 0.00 0.00 0.00 84 1009.0
20260506041927 79 164 0.0 0.9 0.00 0.00 0.00 84 1008.8
20260506041426 79 164 0.0 0.9 0.00 0.00 0.00 84 1008.9
20260506040929 79 164 0.0 1.7 0.00 0.00 0.00 84 1009.0
20260506040426 79 163 0.0 0.0 0.00 0.00 0.00 84 1008.9
20260506035927 79 163 0.0 0.0 0.00 0.00 0.00 83 1008.8
20260506035426 79 163 0.0 1.7 0.00 0.00 0.00 83 1008.7
20260506034930 79 157 0.0 0.9 0.00 0.00 0.00 83 1008.6
20260506034427 79 157 0.0 3.5 0.00 0.00 0.00 83 1008.5
20260506033926 79 185 0.9 1.7 0.00 0.00 0.00 83 1008.6
20260506033426 79 185 0.0 0.9 0.00 0.00 0.00 83 1008.6
20260506032926 79 185 0.9 0.9 0.00 0.00 0.00 83 1008.5
20260506032427 79 185 0.0 0.9 0.00 0.00 0.00 83 1008.4
20260506031927 79 185 0.0 0.9 0.00 0.00 0.00 83 1008.3
20260506031426 79 185 0.0 0.9 0.00 0.00 0.00 83 1008.1
20260506030927 79 185 0.0 0.9 0.00 0.00 0.00 83 1008.0
20260506030427 79 185 0.0 0.9 0.00 0.00 0.00 82 1007.9
20260506025927 79 185 0.0 0.9 0.00 0.00 0.00 82 1007.9
20260506025426 79 185 0.0 1.7 0.00 0.00 0.00 82 1007.8
20260506024930 79 185 0.9 1.7 0.00 0.00 0.00 82 1007.8
20260506024426 79 186 0.0 1.7 0.00 0.00 0.00 82 1007.7
20260506023926 79 187 0.0 1.7 0.00 0.00 0.00 82 1007.6
20260506023430 79 184 0.0 1.7 0.00 0.00 0.00 81 1007.4
20260506022927 79 184 0.0 0.9 0.00 0.00 0.00 81 1007.5
20260506022427 79 184 0.0 2.6 0.00 0.00 0.00 81 1007.5
20260506021929 79 184 0.9 1.7 0.00 0.00 0.00 81 1007.5
20260506021430 80 219 1.7 1.7 0.00 0.00 0.00 81 1007.5
20260506020926 80 219 0.0 0.9 0.00 0.00 0.00 80 1007.3
20260506020427 80 219 0.9 1.7 0.00 0.00 0.00 80 1007.3
20260506015927 80 219 0.9 1.7 0.00 0.00 0.00 80 1007.2
20260506015428 80 219 0.9 1.7 0.00 0.00 0.00 80 1007.3
20260506014926 80 219 0.0 1.7 0.00 0.00 0.00 80 1007.2
20260506014429 80 219 0.0 1.7 0.00 0.00 0.00 80 1007.1
20260506013930 80 229 0.9 1.7 0.00 0.00 0.00 79 1007.1
20260506013426 80 234 0.0 1.7 0.00 0.00 0.00 79 1007.0
20260506012927 80 248 0.9 1.7 0.00 0.00 0.00 79 1006.9
20260506012427 80 223 0.0 0.9 0.00 0.00 0.00 79 1006.8
20260506011927 80 223 0.9 0.9 0.00 0.00 0.00 79 1006.7
20260506011427 80 223 0.0 1.7 0.00 0.00 0.00 79 1006.6
20260506010926 80 223 0.0 1.7 0.00 0.00 0.00 78 1006.5
20260506010426 81 223 1.7 1.7 0.00 0.00 0.00 78 1006.5
20260506005930 81 224 0.0 1.7 0.00 0.00 0.00 78 1006.6
20260506005426 81 224 0.9 0.9 0.00 0.00 0.00 78 1006.5
20260506004926 81 224 0.0 1.7 0.00 0.00 0.00 78 1006.4
20260506004427 81 224 0.0 0.9 0.00 0.00 0.00 78 1006.4